| time (UTC) | temp F | wind direction | speed MPH | gust MPH | rain 1hr in | rain 24hr in | rain mn in | humidity % | barometer mb |
| 20260503044013 | 80 | 284 | 2.0 | 2.0 | 0.00 | 0.00 | 0.00 | 80 | 1013.7 |
| 20260503043508 | 80 | 295 | 2.0 | 2.0 | 0.00 | 0.00 | 0.00 | 80 | 1013.6 |
| 20260503043005 | 80 | 258 | 4.0 | 5.0 | 0.00 | 0.00 | 0.00 | 80 | 1013.5 |
| 20260503042502 | 80 | 257 | 5.0 | 6.0 | 0.00 | 0.00 | 0.00 | 80 | 1013.5 |
| 20260503041958 | 80 | 258 | 3.0 | 3.0 | 0.00 | 0.00 | 0.00 | 79 | 1013.5 |
| 20260503041455 | 81 | 240 | 3.0 | 3.0 | 0.00 | 0.00 | 0.00 | 79 | 1013.4 |
| 20260503040953 | 81 | 275 | 2.0 | 2.0 | 0.00 | 0.00 | 0.00 | 79 | 1013.2 |
| 20260503040450 | 81 | 287 | 2.0 | 2.0 | 0.00 | 0.00 | 0.00 | 78 | 1013.3 |
| 20260503035947 | 81 | 287 | 3.0 | 3.0 | 0.00 | 0.00 | 0.00 | 78 | 1013.2 |
| 20260503035444 | 81 | 289 | 3.0 | 5.0 | 0.00 | 0.00 | 0.00 | 78 | 1013.4 |
| 20260503034941 | 81 | 292 | 2.0 | 2.0 | 0.00 | 0.00 | 0.00 | 78 | 1013.2 |
| 20260503034439 | 81 | 259 | 4.0 | 5.0 | 0.00 | 0.00 | 0.00 | 78 | 1013.3 |
| 20260503033936 | 81 | 277 | 4.0 | 5.0 | 0.00 | 0.00 | 0.00 | 78 | 1013.0 |
| 20260503033433 | 81 | 242 | 4.0 | 5.0 | 0.00 | 0.00 | 0.00 | 78 | 1013.1 |
| 20260503032931 | 81 | 279 | 4.0 | 6.0 | 0.00 | 0.00 | 0.00 | 78 | 1013.0 |
| 20260503032429 | 81 | 272 | 3.0 | 5.0 | 0.00 | 0.00 | 0.00 | 78 | 1012.9 |
| 20260503031926 | 81 | 281 | 7.0 | 8.0 | 0.00 | 0.00 | 0.00 | 78 | 1013.1 |
| 20260503031424 | 81 | 292 | 2.0 | 2.0 | 0.00 | 0.00 | 0.00 | 78 | 1012.9 |
| 20260503030920 | 81 | 272 | 3.0 | 3.0 | 0.00 | 0.00 | 0.00 | 78 | 1013.1 |
| 20260503030417 | 81 | 285 | 3.0 | 3.0 | 0.00 | 0.00 | 0.00 | 78 | 1013.1 |
| 20260503025914 | 81 | 290 | 3.0 | 3.0 | 0.00 | 0.00 | 0.00 | 77 | 1012.9 |
| 20260503025411 | 81 | 254 | 4.0 | 6.0 | 0.00 | 0.00 | 0.00 | 77 | 1012.9 |
| 20260503024908 | 81 | 275 | 2.0 | 2.0 | 0.00 | 0.00 | 0.00 | 77 | 1012.8 |
| 20260503024405 | 81 | 260 | 4.0 | 5.0 | 0.00 | 0.00 | 0.00 | 76 | 1012.9 |
| 20260503023902 | 81 | 275 | 5.0 | 6.0 | 0.00 | 0.00 | 0.00 | 76 | 1013.1 |
| 20260503023359 | 81 | 256 | 3.0 | 3.0 | 0.00 | 0.00 | 0.00 | 76 | 1013.0 |
| 20260503022855 | 81 | 281 | 3.0 | 5.0 | 0.00 | 0.00 | 0.00 | 76 | 1013.0 |
| 20260503022349 | 82 | 256 | 5.0 | 7.0 | 0.00 | 0.00 | 0.00 | 75 | 1013.0 |
| 20260503021847 | 82 | 298 | 3.0 | 3.0 | 0.00 | 0.00 | 0.00 | 75 | 1013.1 |
| 20260503021343 | 82 | 277 | 3.0 | 3.0 | 0.00 | 0.00 | 0.00 | 74 | 1013.0 |
| 20260503020840 | 82 | 283 | 4.0 | 5.0 | 0.00 | 0.00 | 0.00 | 73 | 1012.9 |
| 20260503020338 | 82 | 280 | 2.0 | 2.0 | 0.00 | 0.00 | 0.00 | 74 | 1012.8 |
| 20260503015834 | 82 | 277 | 5.0 | 7.0 | 0.00 | 0.00 | 0.00 | 72 | 1012.6 |
| 20260503015331 | 82 | 275 | 4.0 | 5.0 | 0.00 | 0.00 | 0.00 | 72 | 1012.8 |
| 20260503014827 | 82 | 289 | 3.0 | 3.0 | 0.00 | 0.00 | 0.00 | 73 | 1012.7 |
| 20260503014325 | 83 | 267 | 7.0 | 9.0 | 0.00 | 0.00 | 0.00 | 73 | 1012.7 |
| 20260503013822 | 83 | 281 | 4.0 | 6.0 | 0.00 | 0.00 | 0.00 | 71 | 1012.8 |
| 20260503013319 | 83 | 278 | 5.0 | 7.0 | 0.00 | 0.00 | 0.00 | 71 | 1012.6 |
| 20260503012816 | 83 | 287 | 3.0 | 5.0 | 0.00 | 0.00 | 0.00 | 71 | 1012.6 |
| 20260503012314 | 83 | 263 | 3.0 | 5.0 | 0.00 | 0.00 | 0.00 | 70 | 1012.4 |
| 20260503011810 | 83 | 278 | 3.0 | 5.0 | 0.00 | 0.00 | 0.00 | 70 | 1012.2 |
| 20260503011308 | 84 | 260 | 3.0 | 3.0 | 0.00 | 0.00 | 0.00 | 69 | 1012.4 |
| 20260503010803 | 84 | 260 | 4.0 | 5.0 | 0.00 | 0.00 | 0.00 | 66 | 1012.2 |
| 20260503010301 | 84 | 258 | 6.0 | 8.0 | 0.00 | 0.00 | 0.00 | 66 | 1012.1 |
| 20260503005758 | 84 | 250 | 5.0 | 7.0 | 0.00 | 0.00 | 0.00 | 66 | 1012.1 |
| 20260503005255 | 84 | 251 | 5.0 | 6.0 | 0.00 | 0.00 | 0.00 | 63 | 1012.2 |
| 20260503004751 | 85 | 232 | 5.0 | 8.0 | 0.00 | 0.00 | 0.00 | 63 | 1011.8 |
| 20260503004249 | 85 | 280 | 3.0 | 5.0 | 0.00 | 0.00 | 0.00 | 63 | 1011.7 |
| 20260503003746 | 85 | 290 | 4.0 | 6.0 | 0.00 | 0.00 | 0.00 | 62 | 1011.7 |
| 20260503003243 | 85 | 292 | 3.0 | 5.0 | 0.00 | 0.00 | 0.00 | 61 | 1011.9 |
| 20260503002740 | 85 | 253 | 5.0 | 7.0 | 0.00 | 0.00 | 0.00 | 60 | 1011.9 |
| 20260503002237 | 86 | 256 | 7.0 | 10.0 | 0.00 | 0.00 | 0.00 | 59 | 1011.7 |
| 20260503001733 | 86 | 268 | 8.0 | 10.0 | 0.00 | 0.00 | 0.00 | 58 | 1011.7 |
| 20260503001229 | 86 | 251 | 4.0 | 6.0 | 0.00 | 0.00 | 0.00 | 58 | 1011.6 |
| 20260503000728 | 86 | 294 | 3.0 | 3.0 | 0.00 | 0.00 | 0.00 | 59 | 1011.4 |
| 20260503000225 | 86 | 246 | 5.0 | 8.0 | 0.00 | 0.00 | 0.00 | 57 | 1011.3 |
| 20260502235721 | 87 | 267 | 5.0 | 7.0 | 0.00 | 0.00 | 0.00 | 57 | 1011.4 |
| 20260502235219 | 87 | 276 | 4.0 | 5.0 | 0.00 | 0.00 | 0.00 | 55 | 1011.4 |
| 20260502234715 | 87 | 235 | 5.0 | 7.0 | 0.00 | 0.00 | 0.00 | 55 | 1010.9 |
| 20260502234213 | 88 | 284 | 4.0 | 6.0 | 0.00 | 0.00 | 0.00 | 54 | 1011.2 |
| 20260502233708 | 88 | 273 | 5.0 | 7.0 | 0.00 | 0.00 | 0.00 | 54 | 1010.9 |
| 20260502233206 | 0 | 257 | 7.0 | 9.0 | 0.00 | 0.00 | 0.00 | 1011.0 | |
| 20260502232701 | 0 | 252 | 6.0 | 7.0 | 0.00 | 0.00 | 0.00 | 1010.9 | |
| 20260502232159 | 0 | 265 | 2.0 | 2.0 | 0.00 | 0.00 | 0.00 | 1010.7 | |
| 20260502231655 | 0 | 268 | 4.0 | 6.0 | 0.00 | 0.00 | 0.00 | 1010.7 | |
| 20260502231153 | 0 | 271 | 5.0 | 6.0 | 0.00 | 0.00 | 0.00 | 1010.5 | |
| 20260502230651 | 0 | 273 | 4.0 | 6.0 | 0.00 | 0.00 | 0.00 | 1010.3 | |
| 20260502230150 | 0 | 258 | 4.0 | 5.0 | 0.00 | 0.00 | 0.00 | 1010.3 | |
| 20260502225644 | 0 | 248 | 5.0 | 6.0 | 0.00 | 0.00 | 0.00 | 1010.2 | |
| 20260502225142 | 0 | 255 | 4.0 | 5.0 | 0.00 | 0.00 | 0.00 | 1010.1 | |
| 20260502224638 | 0 | 248 | 4.0 | 6.0 | 0.00 | 0.00 | 0.00 | 1010.1 | |
| 20260502224135 | 0 | 279 | 3.0 | 5.0 | 0.00 | 0.00 | 0.00 | 1010.1 | |
| 20260502223633 | 0 | 252 | 4.0 | 5.0 | 0.00 | 0.00 | 0.00 | 1010.0 | |
| 20260502223131 | 0 | 278 | 3.0 | 3.0 | 0.00 | 0.00 | 0.00 | 1009.9 | |
| 20260502222628 | 0 | 276 | 4.0 | 6.0 | 0.00 | 0.00 | 0.00 | 1010.0 | |
| 20260502222125 | 0 | 262 | 3.0 | 3.0 | 0.00 | 0.00 | 0.00 | 1010.1 | |
| 20260502221620 | 0 | 268 | 5.0 | 6.0 | 0.00 | 0.00 | 0.00 | 1009.9 | |
| 20260502221118 | 0 | 245 | 5.0 | 6.0 | 0.00 | 0.00 | 0.00 | 1010.0 | |
| 20260502220614 | 0 | 246 | 7.0 | 8.0 | 0.00 | 0.00 | 0.00 | 1010.0 | |
| 20260502220110 | 0 | 269 | 7.0 | 10.0 | 0.00 | 0.00 | 0.00 | 1010.0 | |
| 20260502215608 | 0 | 244 | 7.0 | 10.0 | 0.00 | 0.00 | 0.00 | 1009.7 | |
| 20260502215104 | 0 | 281 | 8.0 | 10.0 | 0.00 | 0.00 | 0.00 | 1009.9 | |
| 20260502214601 | 0 | 237 | 5.0 | 7.0 | 0.00 | 0.00 | 0.00 | 1009.8 | |
| 20260502214059 | 0 | 245 | 7.0 | 9.0 | 0.00 | 0.00 | 0.00 | 1009.9 | |
| 20260502213555 | 0 | 265 | 4.0 | 6.0 | 0.00 | 0.00 | 0.00 | 1009.7 | |
| 20260502213053 | 0 | 253 | 9.0 | 16.0 | 0.00 | 0.00 | 0.00 | 1009.9 | |
| 20260502212552 | 0 | 285 | 8.0 | 10.0 | 0.00 | 0.00 | 0.00 | 1009.6 | |
| 20260502212049 | 0 | 255 | 9.0 | 13.0 | 0.00 | 0.00 | 0.00 | 1009.7 | |
| 20260502211545 | 0 | 243 | 7.0 | 8.0 | 0.00 | 0.00 | 0.00 | 1009.7 | |
| 20260502211042 | 0 | 282 | 6.0 | 8.0 | 0.00 | 0.00 | 0.00 | 1009.4 | |
| 20260502210539 | 0 | 284 | 4.0 | 5.0 | 0.00 | 0.00 | 0.00 | 1009.6 | |
| 20260502210036 | 0 | 342 | 6.0 | 10.0 | 0.00 | 0.00 | 0.00 | 1009.3 | |
| 20260502205533 | 0 | 306 | 1.0 | 1.0 | 0.00 | 0.00 | 0.00 | 1009.5 | |
| 20260502205030 | 0 | 290 | 5.0 | 7.0 | 0.00 | 0.00 | 0.00 | 1009.5 | |
| 20260502204526 | 0 | 236 | 4.0 | 8.0 | 0.00 | 0.00 | 0.00 | 1009.5 | |
| 20260502204025 | 0 | 223 | 8.0 | 11.0 | 0.00 | 0.00 | 0.00 | 1009.5 | |
| 20260502203521 | 0 | 260 | 7.0 | 8.0 | 0.00 | 0.00 | 0.00 | 1009.4 | |
| 20260502203018 | 0 | 246 | 3.0 | 3.0 | 0.00 | 0.00 | 0.00 | 1009.5 | |
| 20260502202514 | 0 | 291 | 2.0 | 3.0 | 0.00 | 0.00 | 0.00 | 1009.6 | |
| 20260502202013 | 93 | 277 | 4.0 | 5.0 | 0.00 | 0.00 | 0.00 | 45 | 1009.6 |
| 20260502201509 | 92 | 243 | 6.0 | 8.0 | 0.00 | 0.00 | 0.00 | 46 | 1009.7 |
| 20260502201005 | 93 | 327 | 2.0 | 2.0 | 0.00 | 0.00 | 0.00 | 46 | 1009.7 |
| 20260502200501 | 93 | 257 | 3.0 | 6.0 | 0.00 | 0.00 | 0.00 | 45 | 1009.9 |
| 20260502195959 | 93 | 257 | 11.0 | 13.0 | 0.00 | 0.00 | 0.00 | 45 | 1009.8 |
| 20260502195456 | 92 | 223 | 6.0 | 7.0 | 0.00 | 0.00 | 0.00 | 47 | 1009.9 |
| 20260502194952 | 93 | 258 | 9.0 | 13.0 | 0.00 | 0.00 | 0.00 | 45 | 1010.0 |
| 20260502194449 | 93 | 281 | 5.0 | 7.0 | 0.00 | 0.00 | 0.00 | 46 | 1010.1 |
| 20260502193944 | 92 | 225 | 4.0 | 6.0 | 0.00 | 0.00 | 0.00 | 45 | 1010.0 |
| 20260502193442 | 93 | 245 | 14.0 | 17.0 | 0.00 | 0.00 | 0.00 | 46 | 1010.0 |
| 20260502192938 | 92 | 230 | 7.0 | 9.0 | 0.00 | 0.00 | 0.00 | 48 | 1010.1 |
| 20260502192435 | 93 | 269 | 6.0 | 7.0 | 0.00 | 0.00 | 0.00 | 48 | 1010.2 |
| 20260502191932 | 93 | 279 | 6.0 | 8.0 | 0.00 | 0.00 | 0.00 | 48 | 1010.1 |
| 20260502191429 | 93 | 269 | 8.0 | 16.0 | 0.00 | 0.00 | 0.00 | 49 | 1010.1 |
| 20260502190927 | 92 | 255 | 11.0 | 14.0 | 0.00 | 0.00 | 0.00 | 50 | 1010.2 |
| 20260502190424 | 93 | 285 | 7.0 | 8.0 | 0.00 | 0.00 | 0.00 | 45 | 1010.0 |
| 20260502185920 | 92 | 287 | 5.0 | 8.0 | 0.00 | 0.00 | 0.00 | 48 | 1010.3 |
| 20260502185415 | 93 | 285 | 5.0 | 8.0 | 0.00 | 0.00 | 0.00 | 50 | 1010.3 |
| 20260502184913 | 93 | 289 | 3.0 | 5.0 | 0.00 | 0.00 | 0.00 | 49 | 1010.3 |
| 20260502184409 | 92 | 251 | 7.0 | 9.0 | 0.00 | 0.00 | 0.00 | 47 | 1010.3 |
| 20260502183905 | 93 | 271 | 13.0 | 17.0 | 0.00 | 0.00 | 0.00 | 48 | 1010.3 |
| 20260502183401 | 93 | 238 | 6.0 | 8.0 | 0.00 | 0.00 | 0.00 | 48 | 1010.4 |
| 20260502182856 | 92 | 253 | 5.0 | 7.0 | 0.00 | 0.00 | 0.00 | 51 | 1010.2 |
| 20260502182352 | 92 | 221 | 6.0 | 13.0 | 0.00 | 0.00 | 0.00 | 51 | 1010.3 |
| 20260502181849 | 91 | 241 | 8.0 | 11.0 | 0.00 | 0.00 | 0.00 | 52 | 1010.2 |
| 20260502181348 | 92 | 228 | 12.0 | 14.0 | 0.00 | 0.00 | 0.00 | 52 | 1010.5 |
| 20260502180845 | 92 | 240 | 7.0 | 10.0 | 0.00 | 0.00 | 0.00 | 55 | 1010.7 |
| 20260502180342 | 92 | 245 | 7.0 | 10.0 | 0.00 | 0.00 | 0.00 | 54 | 1010.6 |
| 20260502170255 | 90 | 247 | 6.0 | 9.0 | 0.00 | 0.00 | 0.00 | 62 | 1010.8 |
| 20260502164242 | 90 | 280 | 4.0 | 5.0 | 0.00 | 0.00 | 0.00 | 63 | 1011.1 |
| 20260502163738 | 89 | 269 | 5.0 | 6.0 | 0.00 | 0.00 | 0.00 | 64 | 1011.2 |
| 20260502163235 | 91 | 255 | 5.0 | 9.0 | 0.00 | 0.00 | 0.00 | 61 | 1011.1 |
| 20260502162732 | 90 | 287 | 2.0 | 2.0 | 0.00 | 0.00 | 0.00 | 63 | 1011.3 |
| 20260502162229 | 89 | 255 | 5.0 | 9.0 | 0.00 | 0.00 | 0.00 | 65 | 1011.3 |
| 20260502161726 | 89 | 104 | 4.0 | 5.0 | 0.00 | 0.00 | 0.00 | 63 | 1011.3 |
| 20260502161222 | 89 | 262 | 4.0 | 6.0 | 0.00 | 0.00 | 0.00 | 64 | 1011.3 |
| 20260502160721 | 89 | 33 | 3.0 | 3.0 | 0.00 | 0.00 | 0.00 | 63 | 1011.1 |
| 20260502160219 | 89 | 264 | 2.0 | 2.0 | 0.00 | 0.00 | 0.00 | 64 | 1011.3 |
| 20260502152143 | 87 | 245 | 3.0 | 3.0 | 0.00 | 0.00 | 0.00 | 66 | 1011.6 |
| 20260502151641 | 87 | 299 | 3.0 | 3.0 | 0.00 | 0.00 | 0.00 | 66 | 1011.6 |
| 20260502151138 | 88 | 59 | 2.0 | 2.0 | 0.00 | 0.00 | 0.00 | 65 | 1011.8 |
| 20260502150635 | 88 | 228 | 2.0 | 6.0 | 0.00 | 0.00 | 0.00 | 65 | 1011.6 |
| 20260502150131 | 89 | 344 | 0.0 | 1.0 | 0.00 | 0.00 | 0.00 | 64 | 1011.6 |
| 20260502130520 | 83 | 73 | 1.0 | 5.0 | 0.00 | 0.00 | 0.00 | 80 | 1011.3 |
| 20260502123503 | 81 | 311 | 0.0 | 0.0 | 0.00 | 0.00 | 0.00 | 83 | 1011.3 |
| 20260502123000 | 80 | 283 | 1.0 | 1.0 | 0.00 | 0.00 | 0.00 | 84 | 1011.3 |
| 20260502122456 | 80 | 279 | 3.0 | 5.0 | 0.00 | 0.00 | 0.00 | 84 | 1011.5 |
| 20260502121954 | 80 | 269 | 1.0 | 2.0 | 0.00 | 0.00 | 0.00 | 85 | 1011.6 |
| 20260502121451 | 80 | 293 | 1.0 | 2.0 | 0.00 | 0.00 | 0.00 | 84 | 1011.3 |
| 20260502120948 | 80 | 9 | 0.0 | 0.0 | 0.00 | 0.00 | 0.00 | 84 | 1011.5 |
| 20260502120444 | 80 | 9 | 0.0 | 1.0 | 0.00 | 0.00 | 0.00 | 84 | 1011.2 |
| 20260502115439 | 80 | 347 | 0.0 | 0.0 | 0.00 | 0.00 | 0.00 | 83 | 1011.4 |
| 20260502114935 | 79 | 277 | 0.0 | 0.0 | 0.00 | 0.00 | 0.00 | 83 | 1011.2 |
| 20260502114432 | 79 | 272 | 0.0 | 0.0 | 0.00 | 0.00 | 0.00 | 84 | 1011.2 |
| 20260502113929 | 78 | 273 | 0.0 | 0.0 | 0.00 | 0.00 | 0.00 | 84 | 1011.3 |
| 20260502113427 | 77 | 269 | 0.0 | 0.0 | 0.00 | 0.00 | 0.00 | 86 | 1011.5 |
| 20260502112925 | 77 | 273 | 0.0 | 0.0 | 0.00 | 0.00 | 0.00 | 87 | 1011.4 |
| 20260502112422 | 76 | 273 | 0.0 | 0.0 | 0.00 | 0.00 | 0.00 | 87 | 1011.4 |
| 20260502111920 | 76 | 273 | 0.0 | 0.0 | 0.00 | 0.00 | 0.00 | 87 | 1011.7 |
| 20260502111416 | 75 | 274 | 0.0 | 0.0 | 0.00 | 0.00 | 0.00 | 87 | 1011.4 |
| 20260502110914 | 75 | 273 | 0.0 | 0.0 | 0.00 | 0.00 | 0.00 | 87 | 1011.6 |
| 20260502110412 | 75 | 273 | 0.0 | 0.0 | 0.00 | 0.00 | 0.00 | 87 | 1011.3 |
| 20260502105909 | 75 | 273 | 0.0 | 0.0 | 0.00 | 0.00 | 0.00 | 87 | 1011.3 |
| 20260502105406 | 75 | 273 | 0.0 | 0.0 | 0.00 | 0.00 | 0.00 | 87 | 1011.2 |
| 20260502104904 | 75 | 273 | 0.0 | 0.0 | 0.00 | 0.00 | 0.00 | 87 | 1011.4 |
| 20260502104401 | 75 | 273 | 0.0 | 0.0 | 0.00 | 0.00 | 0.00 | 87 | 1011.3 |
| 20260502103858 | 75 | 273 | 0.0 | 0.0 | 0.00 | 0.00 | 0.00 | 87 | 1011.2 |
| 20260502103356 | 75 | 273 | 0.0 | 0.0 | 0.00 | 0.00 | 0.00 | 87 | 1011.6 |
| 20260502102852 | 75 | 273 | 0.0 | 0.0 | 0.00 | 0.00 | 0.00 | 87 | 1011.2 |
| 20260502102349 | 75 | 273 | 0.0 | 0.0 | 0.00 | 0.00 | 0.00 | 87 | 1011.4 |
| 20260502101846 | 75 | 273 | 0.0 | 0.0 | 0.00 | 0.00 | 0.00 | 86 | 1011.4 |
| 20260502101345 | 75 | 273 | 0.0 | 0.0 | 0.00 | 0.00 | 0.00 | 86 | 1011.0 |
| 20260502100843 | 75 | 273 | 0.0 | 0.0 | 0.00 | 0.00 | 0.00 | 86 | 1011.1 |
| 20260502100342 | 75 | 273 | 0.0 | 0.0 | 0.00 | 0.00 | 0.00 | 86 | 1011.3 |
| 20260502091315 | 75 | 273 | 0.0 | 0.0 | 0.00 | 0.00 | 0.00 | 86 | 1011.3 |
| 20260502090813 | 75 | 273 | 0.0 | 0.0 | 0.00 | 0.00 | 0.00 | 86 | 1011.3 |
| 20260502090309 | 75 | 273 | 0.0 | 0.0 | 0.00 | 0.00 | 0.00 | 86 | 1011.3 |
| 20260502071205 | 75 | 275 | 0.0 | 0.0 | 0.00 | 0.00 | 0.00 | 84 | 1011.3 |
| 20260502070703 | 75 | 275 | 0.0 | 0.0 | 0.00 | 0.00 | 0.00 | 83 | 1011.6 |
| 20260502070200 | 75 | 275 | 0.0 | 0.0 | 0.00 | 0.00 | 0.00 | 83 | 1011.2 |
| 20260502065659 | 75 | 275 | 0.0 | 0.0 | 0.00 | 0.00 | 0.00 | 83 | 1011.4 |
| 20260502065156 | 75 | 275 | 0.0 | 0.0 | 0.00 | 0.00 | 0.00 | 82 | 1011.5 |
| 20260502064655 | 75 | 275 | 0.0 | 0.0 | 0.00 | 0.00 | 0.00 | 82 | 1011.6 |
| 20260502064151 | 75 | 275 | 0.0 | 0.0 | 0.00 | 0.00 | 0.00 | 82 | 1011.5 |
| 20260502063649 | 76 | 275 | 1.0 | 1.0 | 0.00 | 0.00 | 0.00 | 83 | 1011.4 |
| 20260502063147 | 76 | 275 | 1.0 | 1.0 | 0.00 | 0.00 | 0.00 | 81 | 1011.7 |
| 20260502062643 | 76 | 275 | 1.0 | 1.0 | 0.00 | 0.00 | 0.00 | 81 | 1011.5 |
| 20260502062141 | 76 | 275 | 0.0 | 0.0 | 0.00 | 0.00 | 0.00 | 80 | 1011.5 |
| 20260502061639 | 76 | 275 | 0.0 | 0.0 | 0.00 | 0.00 | 0.00 | 82 | 1011.5 |
| 20260502061137 | 76 | 275 | 1.0 | 1.0 | 0.00 | 0.00 | 0.00 | 82 | 1011.4 |
| 20260502060636 | 76 | 275 | 0.0 | 0.0 | 0.00 | 0.00 | 0.00 | 81 | 1011.6 |
| 20260502060133 | 76 | 275 | 0.0 | 0.0 | 0.00 | 0.00 | 0.00 | 81 | 1011.5 |
| 20260502055631 | 76 | 275 | 0.0 | 0.0 | 0.00 | 0.00 | 0.00 | 81 | 1011.6 |
| 20260502055129 | 76 | 275 | 0.0 | 0.0 | 0.00 | 0.00 | 0.00 | 81 | 1011.4 |
| 20260502054628 | 76 | 275 | 1.0 | 1.0 | 0.00 | 0.00 | 0.00 | 81 | 1011.6 |
| 20260502054125 | 76 | 275 | 0.0 | 1.0 | 0.00 | 0.00 | 0.00 | 80 | 1011.4 |
| 20260502053622 | 76 | 275 | 0.0 | 0.0 | 0.00 | 0.00 | 0.00 | 80 | 1011.6 |
| 20260502053119 | 76 | 275 | 0.0 | 0.0 | 0.00 | 0.00 | 0.00 | 81 | 1011.5 |
| 20260502052617 | 76 | 275 | 0.0 | 0.0 | 0.00 | 0.00 | 0.00 | 80 | 1011.4 |
| 20260502052115 | 76 | 275 | 0.0 | 0.0 | 0.00 | 0.00 | 0.00 | 79 | 1011.4 |
| 20260502051613 | 76 | 275 | 0.0 | 0.0 | 0.00 | 0.00 | 0.00 | 79 | 1011.5 |
| 20260502051111 | 76 | 275 | 0.0 | 0.0 | 0.00 | 0.00 | 0.00 | 79 | 1011.6 |
| 20260502050607 | 77 | 275 | 0.0 | 0.0 | 0.00 | 0.00 | 0.00 | 79 | 1011.8 |
| 20260502050104 | 77 | 275 | 0.0 | 0.0 | 0.00 | 0.00 | 0.00 | 78 | 1011.6 |
| 20260502045600 | 77 | 275 | 0.0 | 0.0 | 0.00 | 0.00 | 0.00 | 78 | 1011.7 |
| 20260502045058 | 77 | 275 | 0.0 | 0.0 | 0.00 | 0.00 | 0.00 | 78 | 1012.0 |
| 20260502044554 | 77 | 275 | 0.0 | 0.0 | 0.00 | 0.00 | 0.00 | 77 | 1011.8 |